Reflectivity
-20 -20 -20 -20 -20 -20 -20 -20 -20 -20 -20 -20 -20 -20 -20 -20 -20 -18 -18 -20 -20 -9 11 -20 -20 -20 -20 -20 -20 -20 -20 -20 -2 19 -13 -4 -15 -3 -20 -20 -20 -1 -11 27 5 -18 19 -7 3
-20 -20 -20 -20 -20 -20 -20 -20 -20 -20 -20 -20 -20 -20 -20 -20 -20 -20 -11 -20 -20 -20 -10 13 -10 -20 -20 4 -20 -20 -20 -20 -1 4 10 10 -20 -6 -20 -20 -20 6 30 12 -20 -2 -20 -16 12
-20 -20 -20 -20 -20 -20 -20 -20 -20 -20 -20 -20 -20 -20 -20 -20 -20 -20 -20 -20 -20 -14 -3 -20 -6 -20 -20 -20 -20 -20 -20 -20 14 -16 -20 -20 6 7 -20 -20 -20 0 -20 -2 -20 -20 -20 -20 5
-20 -20 -20 -20 -20 -20 -20 -20 -20 -20 -20 -20 -20 -20 -20 -20 -20 -20 -20 -20 -20 -20 -19 14 -14 -20 -20 31 -20 -20 -20 -20 -20 -20 22 -20 -9 -20 -20 5 -20 -6 -18 -4 -20 -20 -20 -20 -20
-20 -20 -20 -20 -20 -20 -20 -20 -20 -20 -20 -20 -20 -20 -20 -20 -20 -20 -20 -20 -20 -20 -20 6 4 -20 -20 -20 -20 28 -13 2 -12 -11 -20 -20 -20 -15 1 -20 -20 -20 -8 -20 -20 -20 -20 -20 -20
-20 -20 -20 -20 -20 -20 -20 -20 -20 -20 -20 -20 -20 -20 -20 -20 -20 -20 -20 -20 -20 -20 -20 -20 6 -20 -20 -20 -20 -20 -20 -19 -20 -20 -20 -20 -20 -20 -20 5 -20 -20 -20 -20 -20 -20 -20 -20 -20
-20 -20 -20 -20 -20 -20 -20 -20 -20 -20 -20 -20 -20 -20 -20 -20 -20 -20 -20 -20 -20 -20 -20 -20 -19 -9 -20 -19 4 -20 -20 -20 -20 -20 -19 -20 6 -20 -20 -20 -20 -18 -20 5 -20 -20 -20 -20 -20
-20 -20 -20 -20 -20 -20 -20 -20 -20 -20 -20 -20 -20 -20 -20 -20 -20 -20 -20 -20 -20 -20 -20 -20 -20 -20 22 10 -20 -20 27 -16 -20 -20 -20 -20 -20 -20 -20 -20 -20 -20 -20 -5 -2 -20 -20 -20 -20
-20 -20 -20 -20 -20 -20 -20 -20 -20 -20 -20 -20 -20 -20 -20 -20 -20 -20 -20 -20 -20 -20 -20 -20 -6 -20 -3 17 14 -20 -20 -20 -20 -20 -20 -20 -20 -20 -20 -20 -20 -20 -20 -20 -20 -20 -20 -20 -20
-20 -20 -20 -20 -20 -20 -20 -20 -20 -20 -20 -20 -20 -20 -20 -20 -20 -20 -20 -20 -20 -20 -20 -20 -20 -13 -10 -17 6 7 -19 -20 -20 -20 -20 -20 -20 -20 -20 1 -20 -20 -20 -20 -20 -18 -20 -20 -20
-20 -20 -20 -20 -20 -20 -20 -20 -20 -20 -20 -20 -20 -20 -20 -20 -20 -20 -20 -20 -20 -20 -20 -20 -20 -20 -20 2 4 3 2 -20 -20 -20 -20 -20 -2 -11 -20 -18 -20 -20 -20 -8 -20 -20 -20 -20 -20
-20 -20 -20 -20 -20 -20 -20 -20 -20 -20 -20 -20 -20 -20 -20 -20 -20 -20 -20 -20 -20 -20 -20 -20 -20 -20 -20 -2 -15 -9 16 -20 -20 -20 -12 8 -7 -20 -20 -11 3 8 -18 -20 7 -0 -17 -20 -20
-20 -20 -20 -20 -20 -20 -20 -20 -20 -20 -20 -20 -20 -20 -20 -20 -20 -20 -20 -20 -20 -20 -20 -20 -20 -20 -20 -2 -20 13 2 -20 -20 -20 -20 -19 5 17 1 -15 4 2 -9 16 16 -0 -18 10 -20
-20 -20 -20 -20 -20 -20 -20 -20 -20 -20 -20 -20 -20 -20 -20 -20 -20 -20 -20 -20 -20 -20 -20 -20 -20 -20 -20 -16 -0 -17 -9 -9 -20 -20 -20 -20 -20 -14 -20 -20 -4 -12 -5 11 -20 -11 -14 -20 29
-20 -20 -20 -20 -20 -20 -20 -20 -20 -20 -20 -20 -20 -20 -20 -20 -20 -20 -20 -20 -20 -20 -20 -20 -20 -20 -20 -20 -20 -9 -16 23 -7 -17 -20 -20 -20 -20 -20 -20 -20 -20 -20 -20 -3 18 -19 -5 8
-20 -20 -20 -20 -20 -20 -20 -20 -20 -20 -20 -20 -20 -20 -20 -20 -20 -20 -20 -20 -20 -20 -20 -20 -20 -20 -20 -20 -20 -10 5 9 -7 -20 -1 -20 -20 -20 -20 -20 -20 -20 -20 -20 -18 -15 -20 -6 14
-20 -20 -20 -20 -20 -20 -20 -20 -20 -20 -20 -20 -20 -20 -20 -20 -20 -20 -20 -20 -20 -20 -20 -20 -20 -20 -20 -20 -20 -1 -5 8 1 3 -19 -20 -20 -20 -20 -20 -20 -20 -20 -20 -9 3 10 -13 -3
-20 -20 -20 -20 -20 -20 -20 -20 -20 -20 -20 -20 -20 -20 -20 -20 -20 -20 -20 -20 -20 -20 -20 -20 -20 -20 -20 -20 -20 -20 -11 16 -4 -20 -20 -20 -20 -20 -20 -20 -20 -20 -20 -20 -20 -8 -17 24 3
-20 -20 -20 -20 -20 -20 -20 -20 -20 -20 -20 -20 -20 -20 -20 -20 -20 -19 -15 -7 -20 -20 -20 -20 -20 -20 -20 -20 -20 -20 -20 -20 -20 -20 -20 -20 -20 -20 -20 -20 -20 -20 -20 -20 -20 -7 9 8 1
-20 -20 -20 -20 -20 -20 -20 -20 -20 -20 -20 -20 -20 -20 -20 -20 -19 -20 -2 -20 -18 -3 -6 -11 2 -20 -20 -20 -17 -20 -10 6 23 -20 -20 -20 -20 -20 -20 -20 -12 -20 -20 -14 -16 -11 6 13 15
-20 -20 -20 -20 -20 -20 -20 -20 -20 -20 -20 -20 -20 -20 -20 -20 -20 2 -20 -15 -2 -9 3 -10 1 5 9 -19 4 14 -20 3 -20 -20 -20 -20 -20 -20 -17 -7 0 4 24 -14 -20 25 -14 8 3
-20 -20 -20 -20 -20 -20 -20 -20 -20 -20 -20 -20 -20 -20 -20 -20 -19 -17 -20 -20 -1 -7 10 -19 11 -1 11 18 10 23 -13 -11 -20 -17 -17 2 -19 -20 -20 -19 -5 6 10 14 4 11 19 22 20
-20 -20 -20 -20 -20 -17 -20 -19 -20 -20 -20 -20 -20 -15 2 -19 -0 -19 -11 -19 -5 -20 10 20 17 23 16 11 28 27 26 29 20 -6 -19 -20 -20 -20 -20 -20 -20 0 27 25 20 21 21 21 24
-20 -20 -20 -20 -15 -9 -20 -20 -20 -20 -20 -20 -20 -16 1 -20 -20 -20 -20 -11 -19 -7 -15 9 -14 18 24 27 15 13 9 20 -4 -19 -19 -20 -20 -20 -20 -20 7 -0 6 14 17 18 22 21 0
-20 -10 -13 -15 -1 -18 -20 -20 -20 -20 -20 -20 -3 -16 3 -20 -20 -20 -20 -20 -19 10 16 -14 -20 -20 -11 -7 -8 14 -11 -7 -8 -20 9 -20 -17 -4 1 6 17 -9 6 14 4 21 2 25 18
-5 0 -3 -6 -2 -16 -20 -14 -20 -20 -18 6 -6 -18 -18 -20 -20 -20 -10 0 -6 20 23 6 -20 -16 -20 -20 -20 -20 -20 -20 -20 -13 22 25 31 16 -2 -14 31 20 10 27 32 33 31 33 26
-0 11 -5 -17 -20 -7 -20 -20 -20 -20 -19 0 6 -11 -20 -5 -20 -19 -14 -14 4 2 17 26 6 9 -12 -4 -10 -20 -20 -19 -12 28 35 4 18 18 -20 -20 -4 10 13 33 29 29 38 28 14
-20 -20 -2 4 -19 -8 -20 -20 -20 -20 -20 -20 -3 -9 -5 1 -6 -6 -2 -7 -0 18 19 18 18 17 24 28 13 3 -3 10 23 21 -14 -20 -20 10 4 -20 -16 -19 27 29 34 31 27 16 25
-8 -13 -14 -7 -20 -14 -20 -20 -20 -20 -13 -4 -4 -7 -11 -17 -16 -5 -5 -9 -0 5 -7 -20 6 15 7 -6 5 11 -1 3 10 12 11 4 1 5 5 -15 8 14 10 9 13 28 33 30 25
-20 -20 -20 -20 -5 -20 -20 -20 -20 -20 -20 -2 1 -6 -19 -20 -20 -20 -20 -20 -19 -12 -4 3 8 -16 4 6 8 10 10 6 6 6 3 7 12 3 -11 -12 10 -1 -4 17 2 9 16 24 16
Wind_Speed
10 7 4 5 6 6 10 5 4 6 5 5 5 5 6 7 8 5 8 11 13 9 3 11 9 10 9 8 8 7 8 10 11 12 12 11 11 11 8 8 9 8 10 9 11 9 10 10 11
3 4 5 3 7 9 6 9 6 6 6 2 2 4 4 10 12 5 6 15 14 10 6 7 13 10 10 9 9 8 8 7 7 9 9 10 8 9 8 8 8 6 7 9 12 11 11 9 8
7 5 4 4 6 10 3 3 10 5 2 2 3 4 4 6 11 7 13 13 14 11 13 2 12 10 10 9 8 9 8 7 5 5 7 8 10 10 8 8 8 7 5 7 9 9 10 9 7
5 4 4 7 9 9 5 7 6 5 3 0 5 6 6 7 4 11 12 9 10 11 9 3 8 7 9 9 8 9 9 8 6 5 5 6 7 8 10 10 7 5 6 7 10 11 10 10 9
4 4 6 6 7 5 3 8 2 3 3 1 3 3 3 6 8 12 14 12 10 10 10 12 6 6 7 9 9 8 8 8 8 7 7 5 7 8 7 6 7 7 8 9 9 10 10 11 9
4 5 6 9 6 4 3 1 1 2 3 3 3 5 4 8 10 11 12 13 11 9 9 8 3 5 6 8 10 10 9 7 7 7 8 8 8 8 8 6 7 10 12 10 10 11 11 10 10
5 4 4 1 5 6 4 2 3 2 0 1 4 6 8 5 8 10 11 12 12 9 8 8 9 6 6 6 7 7 8 9 9 10 10 10 8 8 9 8 9 12 13 11 11 11 11 11 10
4 4 4 4 7 5 3 2 1 4 1 6 2 4 5 6 11 10 10 11 10 10 8 7 9 8 7 8 9 8 9 10 9 7 9 9 8 8 9 8 10 11 13 13 12 12 12 11 9
2 4 5 4 4 7 3 1 2 3 7 5 6 8 10 13 12 11 11 9 9 8 8 10 6 9 6 6 5 8 8 7 7 8 8 7 8 11 12 11 9 13 14 14 13 13 13 11 9
5 4 4 5 5 5 2 3 5 5 6 10 11 11 9 8 12 14 13 11 11 11 10 8 8 4 8 7 4 8 9 8 9 8 9 8 10 10 9 8 12 12 13 13 14 14 13 10 9
3 3 4 3 5 4 4 6 5 6 9 8 9 12 13 14 14 14 14 12 11 11 10 10 9 8 5 7 5 4 4 4 5 6 6 7 5 5 5 5 7 8 9 9 11 11 9 13 10
4 1 2 2 3 4 6 9 8 12 16 15 14 15 15 15 14 13 14 14 14 12 12 11 10 8 7 5 5 7 7 6 5 2 2 3 3 1 5 5 5 8 7 12 9 8 12 13 14
3 4 2 0 3 6 8 11 12 19 16 13 10 12 14 13 14 13 14 14 15 14 11 10 10 10 8 6 6 6 8 7 8 8 7 4 1 2 4 4 5 4 7 8 7 9 10 12 13
2 2 1 1 3 5 8 11 4 3 3 6 10 12 12 13 13 15 15 16 16 15 14 11 10 11 10 7 9 6 7 6 5 8 8 10 6 6 6 6 7 7 5 8 7 9 8 10 12
2 3 3 1 1 2 6 12 11 9 4 12 13 13 14 16 15 14 14 16 16 14 15 15 13 11 11 11 8 7 7 6 5 7 9 10 9 8 8 7 6 7 8 11 6 8 7 8 5
3 2 4 7 1 3 4 8 7 3 8 13 13 12 12 13 13 13 14 14 15 16 16 16 13 12 11 11 8 7 7 5 7 6 6 10 10 10 8 7 6 7 7 8 9 8 8 9 8
5 3 5 5 3 1 6 9 1 8 8 11 10 9 8 8 9 10 11 11 13 14 16 15 14 13 13 12 10 9 9 7 8 9 10 11 10 11 10 8 7 9 7 7 7 8 10 8 7
6 3 3 5 4 7 11 18 16 11 10 9 7 8 9 9 11 11 14 14 14 16 14 15 13 14 13 10 9 8 8 7 9 9 9 11 9 11 9 9 9 9 8 7 8 11 10 10 8
4 1 3 5 2 8 8 14 15 12 7 6 6 6 8 11 13 14 14 14 15 14 17 15 13 14 10 8 8 8 8 7 7 7 9 9 9 10 9 8 10 10 10 11 12 11 13 11 9
3 1 3 4 1 6 12 19 18 8 3 3 6 7 10 11 13 14 14 15 15 15 14 17 16 12 11 8 5 6 6 6 5 4 5 6 9 9 10 10 9 11 9 13 13 14 10 10 10
4 4 4 2 10 14 12 12 4 5 3 3 5 6 8 9 12 12 13 14 13 13 13 12 13 12 9 8 5 2 1 2 2 3 4 6 9 9 9 13 12 13 12 10 13 14 16 11 10
1 2 1 5 8 4 8 6 7 2 3 3 4 6 9 10 9 11 12 12 12 11 11 12 11 10 10 10 5 5 2 4 3 3 4 5 10 10 10 11 12 14 12 14 13 13 13 12 12
5 2 5 6 6 7 5 3 2 3 3 1 10 7 8 8 9 10 11 11 12 11 8 7 8 9 10 9 8 7 10 7 7 7 6 8 8 10 11 12 12 12 13 15 15 14 12 10 10
4 5 5 3 2 4 4 5 5 3 5 10 7 4 5 6 7 8 10 10 10 9 10 9 8 8 9 9 11 14 12 9 9 10 8 7 7 7 10 12 11 11 12 14 12 13 13 12 11
2 3 2 4 3 2 0 4 9 2 3 3 4 5 4 5 6 7 9 10 11 11 11 10 11 12 12 13 13 12 10 11 10 9 8 9 7 7 8 10 11 10 12 13 13 12 11 12 11
3 3 3 4 3 5 3 7 0 4 2 2 3 6 2 3 4 6 7 7 9 10 11 12 12 12 13 12 14 10 12 8 8 9 5 6 5 5 8 9 9 11 12 13 13 10 10 5 4
5 2 3 3 5 4 7 7 4 4 4 4 4 3 2 4 4 5 6 7 7 8 9 9 9 9 11 11 7 7 8 9 8 9 6 3 5 4 8 7 7 9 11 11 11 10 11 11 12
2 2 1 3 3 5 4 5 4 5 5 2 2 2 1 1 3 5 5 5 5 6 6 5 8 9 7 6 8 6 7 5 4 3 6 7 7 9 8 9 9 10 8 9 9 8 9 11 8
4 3 5 3 3 4 6 3 1 4 2 3 3 3 4 3 3 4 5 4 3 4 7 6 6 6 6 6 6 7 7 7 7 7 8 9 8 9 11 10 10 11 11 11 9 9 9 9 8
6 8 6 4 2 6 4 3 3 2 2 3 4 5 7 7 8 6 4 5 4 4 4 3 2 2 3 3 3 4 5 5 5 6 7 7 7 8 9 9 9 10 9 9 10 10 9 9 10
Wind_Direction
268 234 245 207 225 233 242 151 37 143 165 77 37 276 5 9 10 27 114 15 350 343 354 173 176 178 175 167 158 153 154 167 178 168 174 164 169 159 180 187 193 205 214 181 175 147 136 131 90
261 226 226 218 248 220 212 91 194 119 62 114 171 197 204 105 34 54 360 355 343 330 310 208 170 186 189 178 168 163 167 173 169 164 171 168 177 175 177 206 210 220 176 152 146 147 131 109 127
257 259 222 220 239 246 34 139 102 102 107 204 146 309 25 43 49 9 4 349 337 339 334 214 165 186 199 198 187 178 176 176 176 169 175 181 188 181 176 208 217 222 195 183 140 124 124 119 142
181 208 235 246 220 91 53 95 97 149 132 125 339 131 106 40 31 9 354 358 350 340 352 83 156 180 205 206 199 198 188 188 194 212 215 209 199 196 199 201 209 203 195 159 135 137 138 144 161
208 242 235 232 229 82 71 86 42 154 75 98 346 108 86 79 35 15 0 356 359 346 341 332 143 172 193 202 210 212 209 204 201 205 223 230 214 227 223 203 196 163 185 163 153 154 157 157 166
199 287 229 220 170 143 126 73 282 251 84 76 253 324 90 96 26 7 4 360 357 353 345 328 175 198 204 201 204 210 215 222 223 219 227 222 221 228 236 215 207 184 184 178 177 178 176 174 179
255 220 258 46 132 165 104 303 236 329 155 190 347 276 95 180 22 356 355 355 357 357 349 337 327 222 209 230 208 200 204 211 219 223 225 223 217 227 234 221 214 202 194 185 184 186 185 187 196
281 272 198 191 184 113 91 105 15 289 122 0 310 264 254 75 348 333 342 342 347 355 351 352 327 313 254 208 195 202 199 198 209 223 237 231 226 231 234 223 207 211 200 190 189 190 191 194 199
263 249 207 114 182 95 119 237 108 352 285 279 272 284 298 316 322 323 326 322 329 334 347 341 335 312 309 308 202 192 215 225 220 224 223 234 232 223 228 216 215 202 201 193 192 197 198 190 195
227 265 55 24 51 78 85 329 347 297 282 265 263 268 273 299 310 316 313 313 313 314 324 323 328 300 296 286 260 222 218 217 220 221 229 212 232 239 235 205 182 196 199 194 195 199 198 191 209
172 311 109 99 50 3 337 295 346 295 278 275 309 311 313 310 304 299 301 302 302 301 298 302 307 303 261 287 265 268 247 235 239 263 256 266 279 297 256 234 186 205 201 208 204 203 208 213 225
166 95 355 77 68 332 315 317 283 264 265 302 306 304 302 297 295 293 295 297 297 295 286 284 283 285 272 238 265 263 242 225 224 233 355 302 236 284 311 269 233 189 197 213 208 209 210 219 220
208 155 191 319 295 294 296 275 280 279 287 295 309 297 291 294 295 293 288 288 293 289 284 277 279 271 263 226 245 259 261 225 222 210 196 183 213 233 246 273 292 277 217 236 213 215 223 220 230
97 180 229 313 310 283 287 287 306 269 41 312 304 294 292 293 298 296 289 291 294 291 286 283 268 268 260 233 235 243 270 269 251 216 216 211 205 209 211 237 256 265 272 264 221 218 233 245 218
114 261 198 235 120 324 313 270 232 261 289 303 307 302 300 296 295 293 300 294 291 286 286 285 282 271 262 244 227 226 244 266 249 233 233 234 232 234 239 251 263 263 253 261 272 260 238 243 263
217 254 246 127 251 134 296 291 132 175 299 307 309 306 309 315 313 309 302 300 295 292 289 285 279 275 263 255 232 216 218 231 242 255 247 229 237 246 250 258 255 250 264 256 243 241 243 244 248
196 224 237 169 203 261 228 296 118 308 306 304 316 339 333 329 330 336 332 325 316 302 294 287 278 273 268 260 248 214 209 214 232 232 235 243 243 247 248 250 258 261 254 256 269 265 247 242 231
166 203 250 247 139 260 267 267 276 290 289 297 320 331 336 346 340 341 348 344 327 320 304 291 277 269 260 257 253 251 234 212 229 234 239 244 243 243 247 253 257 260 257 249 240 252 253 244 234
112 181 241 276 353 301 267 283 289 289 287 267 315 326 340 348 341 357 355 343 342 339 331 314 276 262 250 248 243 230 229 227 227 227 245 251 252 260 263 262 261 258 258 257 250 242 237 234 229
166 248 296 304 300 283 291 292 282 290 192 298 328 344 347 334 333 344 345 348 344 341 341 336 313 272 249 239 236 243 235 234 219 216 238 257 260 268 270 267 265 261 259 254 248 249 245 244 230
217 277 347 322 311 262 294 276 131 162 230 236 315 352 332 348 342 345 348 345 344 344 346 347 358 357 359 0 264 245 32 12 8 240 250 252 261 261 252 262 264 263 258 252 250 244 240 243 233
304 75 340 314 335 308 355 296 293 131 253 232 301 6 337 343 347 346 353 343 345 342 346 353 355 6 8 1 357 350 251 283 322 337 322 334 22 358 354 339 304 262 253 248 247 248 241 239 239
42 344 291 296 307 321 118 248 274 191 256 3 359 7 353 344 358 359 357 353 360 350 347 339 12 18 22 28 33 39 33 14 29 26 11 9 5 8 3 340 330 294 273 258 252 249 243 243 242
359 300 289 245 247 250 209 246 283 347 357 330 344 354 345 354 8 9 8 5 3 5 358 5 39 39 28 38 48 43 36 37 41 21 10 8 0 357 4 342 344 343 337 279 258 251 242 237 235
261 310 205 216 218 321 348 289 263 59 28 292 319 331 351 21 13 14 12 3 1 7 7 11 21 33 31 33 57 57 52 45 49 50 8 2 356 355 346 342 359 340 357 347 351 263 245 249 235
176 309 323 272 321 338 97 240 181 111 304 226 298 285 21 42 23 20 11 360 3 4 5 4 15 24 24 25 35 30 36 47 39 39 341 23 293 353 349 357 353 347 8 4 1 11 4 310 258
155 222 43 325 240 252 214 232 175 179 332 312 322 339 8 7 35 6 1 357 356 356 354 351 2 25 25 9 39 31 30 21 28 20 332 324 11 352 2 4 351 360 6 12 8 8 0 2 14
299 58 252 166 278 281 201 241 283 290 308 321 291 296 335 245 51 337 341 332 330 352 334 353 4 27 32 11 14 34 37 28 18 13 9 7 7 14 7 12 4 13 11 9 11 10 2 15 5
180 230 216 280 249 295 315 92 153 288 263 268 231 184 185 152 190 242 263 261 318 338 348 357 12 23 14 24 23 24 30 33 25 14 11 9 12 9 6 8 5 8 7 1 12 11 1 2 357
291 270 265 279 150 250 281 294 154 184 184 208 211 197 206 206 208 224 263 287 288 299 297 316 319 35 1 8 38 20 19 25 21 18 12 359 358 5 8 3 1 359 2 358 2 356 353 354 351